Terug naar catalogus

SL-16 DEB

ActiefLEO
NORAD 22430·DEBRIS·🇷🇺 Russia

Gelanceerd Dec 25, 1992 vanaf Baikonur Cosmodrome

Loading…

Volgende Passages (komende 24 uur)

TLE

VersSource: Space-Track

Epoch: Sep 13, 2026, 20:00 UTC

1 22430U 92093DX  26256.83352093  .00000106  00000-0  10362-3 0  9990
2 22430  71.2364  47.1010 0116307 268.3758 207.4586 13.96135956712848

Volg SL-16 DEB in realtime met AllMySat

Download on the App Store